Timeline UpdatesTrip UpdatesNews PostsPvt PostsTravel TipsAdmin PostsConv PostsFollowed PostsChat RequestsBlog PostsPNR Posts

Disclaimer
Search
 
 
Sat Sep 20, 2014 07:26:09 ISTHomeTrainsΣChainsAtlasPNRForumGalleryNewsFAQTripsMembersLoginFeedback
No Recent News for this Train
Other Trains in the News **new
Latest...
.
Tue Sep 02, 2014 (11:52AM)
⇐ Return Journey: Train# 18477

18478/Kalinga Utkal Express

Time-Table HAS CHANGED.
Sep 03 (10:33AM)
Change Departure Station:
Change Arrival Station:
Post a Train Travel TipPost a Train Travel Tip **new
Post a Comment/Question/Picture/VideoPost a Comment/Question/Picture/Video
Pantry/Catering
✓ Pantry Car Avbl
✓ Catering Avbl
RSA - Rake Sharing
Rake/Coach Composition
Coach Composition:ENG-SLR-GS-S1-S2-S3-S4-S5-S6-S7-S8-S9-PC-S10-S11-S12-B1-B2-A1-GS-GS-SLR. By DJ 132 blog Entry# 701076
Loco
HW-NZM: LDH WDM-3A NZM-PURI: TKD WAP-7
News    PNR    Forum    Time-Table    Availability    Fare Chart    Map    Arr/Dep History    Trips    Gallery    ΣChains    X/O    Timeline    
Travel Time: 37h 53m    58 halts    Distance: 1850 km    Avg Speed: 48 km/hr
Type: Mail/Express
Zone: ECoR/East Coast
Departs @ 17:02
Platform# ???
SMTWTFS
Morena/MRA 
Arrives @ 06:55 +2 nights
Platform# 1
SMTWTFS
Puri/PURI 

58 halts. 256 intermediate Stations between Morena and Puri

Show ALL intermediate Stations  Show Old Time-Table

#CodeStation NameX/OArrivesAvgDepartsAvgHaltPFDay#KmSpeedElevZoneAddress
1HWHaridwar Junction (9)  -06:00-21-521.860294mNRHaridwar, Uttarakhand
2RKRoorkee (3)X  06:45-06:47 06:50-2 5m31-477.126264mNRRoorkee - 247667, Uttarakhand
3TPZTapri Junction (2)  08:02 08:04-08:04 08:06-2m11-445.059274mNRTapri -Saharanpur, Uttar Pradesh
4DBDDeoband (2)X  08:28 08:34-08:30 08:36-2m11-417.345258mNRSaharanpur, Uttar Pradesh
5MOZMuzaffarnagar (3)  09:05 09:08-09:07 09:10-2m11-393.353247mNRMuzaffarNagar, Uttar Pradesh
6MUTMeerut Cantt. (2)  09:58 10:08-10:00 10:10-2m11-342.129230mNRMeerut, Uttar Pradesh
7MTCMeerut City Junction (6)  10:09 10:19-10:12 10:21-3 2m21-337.771229mNRMeerut, Uttar Pradesh
8GZBGhaziabad Junction (6)  10:56 11:01-10:58 11:03-2m31-290.533217mNRGhaziabad, Uttar Pradesh
9NZMDelhi Hazrat Nizamuddin (7)X11:40 11:45-12:05 12:10-25m21-267.169209mNRNew Delhi 110013, Delhi NCT
10FDBFaridabad (4)X  12:24 12:28-12:26 12:30-2m31-246.361206mNRold Faridabad, Haryana
11KSVKosi Kalan (3)  13:41-13:43-2m21-174.678189mNCRKosi Kalan, Uttar Pradesh
12MTJMathura Junction (10)X  14:15-14:20-5m11-133.151179mNCRMathura, Uttar Pradesh
13RKMRaja Ki Mandi (4)X  15:18-15:20-2m21-83.58170mNCRAgra, Uttar Pradesh
14AGCAgra Cantt. (6)X  15:50-15:58-8m41-79.485174mNCRAgra, Uttar Pradesh
15DHODholpur Junction (3)X  16:35-16:37-2m21-26.870177mNCRDholpur, Rajasthan
16MRAMorena (3)»X  17:00-17:02-2m--10.075176mNCRMorena, Madhya Pradesh
17GWLGwalior Junction (4)X  17:33-17:38-5m1138.577214mNCRGwalior, Madhya Pradesh
18DBADabra (3)  18:11-18:13-2m3180.970 NCRDabra(District-Gwalior), Madhya Pradesh
19DAADatia (2)X  18:39-18:41-2m--1111.241264mNCRDatia, Madhya Pradesh
20JHSJhansi Junction (7)X  19:18-19:26 19:28-8 10m31136.367259mNCRJhansi, Uttar Pradesh
21BABBabina (3)X  19:51-19:53-2m11161.868285mNCRBabina, Uttar Pradesh
22TBTTalbahat (4) new halt!!  20:15-20:17-2m21186.783314mNCRKhaniyadhana Station Rd, Madhya Pradesh
23LARLalitpur (3)X  20:38 20:46-20:40 20:48-2m11226.647373mNCRLalitpur, Uttar Pradesh
24MAKRMalkheri Junction (2)X  22:10 22:08-22:12 22:10-2m--1289.741421mWCRGuna, Madhya Pradesh
25KYEKhurai (5)  22:40 22:35-22:42 22:37-2m11307.066439mWCRKhurai, Madhya Pradesh
26SGOSaugor (2)  23:40 23:25-23:45 23:30-5m11359.858519mWCRMP 470001Madhya pradesh, Madhya Pradesh
27PHAPathariaX  00:38 00:23-00:40 00:25-2m12410.756382mWCRState Highway 14, Madhya Pradesh
28DMODamoh (2)  01:23 00:53-01:25 00:55-2m--2436.935365mWCRDamoh, Madhya Pradesh
29KMZKatni Murwara  04:00-04:10-10m22546.044385mWCRMP 483504 ?, Madhya Pradesh
30CHDChandia Road (1)  05:03 05:04-05:05 05:06-2m12585.863406mSECRNational Highway 78, Madhya Pradesh
31UMRUmaria (3)  05:24-05:29-5m--2604.880469mSECRUmaria, Madhya Pradesh
32NRZBNowrozabad  05:46-05:48-2m--2627.454458mSECRNational Highway 78, Madhya Pradesh
33BRSBirsinghpur  05:56-05:58-2m--2634.747461mSECRPali, Madhya Pradesh
34SDLShahdol  06:50 06:46-06:55 06:51-5m--2672.073466mSECR, Madhya Pradesh
35BUHBurhar  07:12 07:07-07:14 07:09-2m--2691.558494mSECRBurhar, Madhya Pradesh
36AALAmlai  07:23 07:18-07:25 07:20-2m--2700.238495mSECRAnuppur, Madhya Pradesh
37APRAnuppur Junction (4)  07:45 07:40-07:50 07:45-5m--2712.973487mSECRAnuppur, Madhya Pradesh
38PNDPendra Road  08:27-08:32-5m--2764.156620mSECRBilaspur district, Chhattisgarh
39BIGBelgahna  09:30-09:32-2m--2817.873327mSECRBilaspur, Chhattisgarh
40KGBKargi Road  09:44 09:45-09:46 09:47-2m72833.628327mSECRBilaspur, Chhattisgarh
41BSPBilaspur Junction (8)X  10:55-11:15-20m12865.668271mSECRBilaspur, Chhattisgarh
42AKTAkaltara (4)  11:39-11:41-2m--2892.953284mSECRDist. Janjgir Champa, Chhattisgarh
43NIANaila  11:58-12:00-2m--2907.843273mSECRJanjgir, Chhattisgarh
44CPHChampa Junction (3)  12:15-12:20-5m--2918.666264mSECRNational Highway 200 (07819-245767), Chhattisgarh
45BUABaradwar  12:33 12:34-12:35 12:36-2m--2934.289 SECRJanjgir-Champa, Chhattisgarh
46SKTSakti (4)  12:46-12:48-2m--2949.077237mSECRJanjgir-Champa, Chhattisgarh
47KHSKharsiaX  13:00-13:02-2m--2964.473 SECRNational Highway 200, Chhattisgarh
48RIGRaigarh (3)  13:30-13:35-5m12998.493220mSECRRaigarh, Chhattisgarh
49BPHBelpaharX  14:08-14:10-2m721049.441 SECRBelpahar, Odisha
50BRJNBrajrajnagar  14:23-14:25-2m--21058.416212mSECRBrajrajnagar, Odisha
51JSGJharsuguda Junction (5)X  15:10-15:20-10m--21070.081236mSERJharsuguda, Odisha
52BMBBamra (3)  15:46 15:47-15:48-2 1m--21106.580259mSERBamra PH : 06642-229268, Odisha
53GPRaj Gangpur (3)  16:13 16:14-16:15-2 1m221141.251237mSERRaj Ganpur, Odisha
54ROURourkela Junction (5)X  16:50-17:05-15m421171.056198mSERRourkela, Odisha
55BZRBisra new halt!!  17:20-17:21-1m--21185.173224mSERSundargarh, Odisha
56MOUManoharpur  17:35 17:42-17:37 17:43-2 1m--21210.857228mSERManoharpur, Jharkhand
57GOLGoilkera (2)  18:05 18:12-18:07 18:13-2 1m--21238.363333mSERGoilkera, Jharkhand
58CKPChakradharpur (3)X  18:45-18:55-10m--21272.075235mSERChakradharpur (West Singhbhum), Jharkhand
59RKSNRajkharsawan Junction (3)X  19:10 19:11-19:12-2 1m--21292.154189mSERSaraikela Kharswan District, Jharkhand
60SINISini Junction (3)  19:28 19:29-19:30-2 1m--21307.329182mSERNational Highway 33, Jharkhand
61TATATatanagar Junction (5)  20:25-20:35-10m421334.366164mSER91-657-2423026, Jharkhand
62GTSGhatsila (3)  21:08-21:10-2m--21370.580103mSEREast Singhbhum, Jharkhand
63CKUChakulia (4)X  21:33-21:35 21:34-2 1m--21401.046126mSERChakulia, Jharkhand
64HIJHijli (2)  23:03-23:05-2m--21468.86848mSERdist - paschim medinipur, West Bengal
65JERJaleswar (4)X  00:02-00:04-2m--31533.66513mSERJaleswar, Odisha
66BTSBasta (3)  00:22-00:24-2m--31553.06516mSERBasta, Odisha
67BLSBalasore (4)X  00:50-01:00-10m231581.08419mSERBalasore, Odisha
68SOROSoro  01:23 01:24-01:25 01:26-2m--31614.54514mSERSoro, Odisha
69BHCBhadrak (4)  02:05-02:07-2m--31643.59023mECoRBhadrak, Odisha
70JJKRJajpur Keonjhar Road (4)X  02:34 02:36-02:36 02:38-2m--31687.17636mECoRJajpur, Odisha
71CTCCuttack Junction (5)  03:35-03:40-5m--31759.14828mECoRCuttack, Odisha
72BBSBhubaneswar (4)X  04:15-04:20-5m431787.02340mECoRBhubaneshwar, Odisha
73KURKhurda Road Junction (7)  05:10-05:15-5m--31806.05725mECoRKhordha, Odisha
74SILSakhi Gopal (3)X  05:46 05:44-05:48 05:51-2 7m--31833.41510mECoRPuri, Odisha
75PURIPuri (5)•  07:00 06:55--131849.9-12mECoRPuri, Odisha
Scroll to Top
Scroll to Bottom